FBZ5162 SABE-SASA

Flight info

Callsign FBZ5162
Flight time 1h 51m
Altitude 34000
Route BIVA4B BIVAM UW8 ERE UT672 DADMI UT677 ILPAR
Aircraft B738/M-VGDW/C

Departure

Time 2026-05-06 23:30
Airport Aeroparque Jorge Newbery (SABE)

Arrival

Time 2026-05-07 01:21
Airport Martín Miguel de Güemes International Airport (SASA)
Time Latitude Longitude Altitude Speed Heading
2026-05-06 23:17 -34.55736 -58.41368 26 ft 0 kts 34°
2026-05-06 23:21 -34.55740 -58.41371 26 ft 2 kts 34°
2026-05-06 23:21 -34.55750 -58.41379 26 ft 2 kts 34°
2026-05-06 23:21 -34.55757 -58.41385 26 ft 1 kts 33°
2026-05-06 23:22 -34.55766 -58.41392 26 ft 2 kts 12°
2026-05-06 23:22 -34.55773 -58.41394 26 ft 2 kts 333°
2026-05-06 23:22 -34.55780 -58.41388 26 ft 2 kts 301°
2026-05-06 23:22 -34.55786 -58.41375 26 ft 2 kts 301°
2026-05-06 23:23 -34.55789 -58.41368 26 ft 1 kts 304°
2026-05-06 23:23 -34.55790 -58.41368 26 ft 0 kts 304°
2026-05-06 23:24 -34.55755 -58.41432 26 ft 8 kts 300°
2026-05-06 23:25 -34.55739 -58.41466 26 ft 7 kts 300°
2026-05-06 23:25 -34.55721 -58.41523 26 ft 10 kts 263°
2026-05-06 23:25 -34.55774 -58.41589 26 ft 10 kts 219°
2026-05-06 23:25 -34.55775 -58.41652 26 ft 9 kts 295°
2026-05-06 23:26 -34.55728 -58.41761 26 ft 12 kts 300°
2026-05-06 23:26 -34.55695 -58.41823 26 ft 14 kts 304°
2026-05-06 23:26 -34.55639 -58.41923 26 ft 15 kts 304°
2026-05-06 23:26 -34.55582 -58.42024 26 ft 12 kts 304°
2026-05-06 23:27 -34.55541 -58.42093 26 ft 11 kts 307°
2026-05-06 23:27 -34.55483 -58.42187 26 ft 16 kts 307°
2026-05-06 23:27 -34.55419 -58.42290 26 ft 11 kts 307°
2026-05-06 23:27 -34.55392 -58.42333 26 ft 4 kts 307°
2026-05-06 23:28 -34.55383 -58.42347 26 ft 0 kts 307°
2026-05-06 23:28 -34.55383 -58.42348 26 ft 0 kts 307°
2026-05-06 23:28 -34.55364 -58.42397 26 ft 12 kts 281°
2026-05-06 23:29 -34.55365 -58.42491 26 ft 9 kts 237°
2026-05-06 23:29 -34.55404 -58.42506 26 ft 10 kts 139°
2026-05-06 23:29 -34.55521 -58.42295 26 ft 67 kts 124°
2026-05-06 23:29 -34.55937 -58.41549 26 ft 144 kts 124°
2026-05-06 23:30 -34.56578 -58.40403 488 ft 174 kts 124°
2026-05-06 23:30 -34.57196 -58.39080 1285 ft 186 kts 107°
2026-05-06 23:30 -34.57270 -58.38009 1652 ft 200 kts 84°
2026-05-06 23:30 -34.56362 -58.36108 2667 ft 201 kts 43°
2026-05-06 23:31 -34.55248 -58.35193 3729 ft 188 kts 30°
2026-05-06 23:31 -34.54043 -58.34540 4421 ft 195 kts 19°
2026-05-06 23:31 -34.52701 -58.33883 4662 ft 226 kts 24°
2026-05-06 23:31 -34.51331 -58.32759 4864 ft 246 kts 30°
2026-05-06 23:32 -34.49777 -58.31967 5586 ft 240 kts
2026-05-06 23:32 -34.48159 -58.32165 6559 ft 233 kts 339°
2026-05-06 23:32 -34.46817 -58.33200 7556 ft 228 kts 318°
2026-05-06 23:32 -34.45734 -58.34573 8555 ft 222 kts 316°
2026-05-06 23:33 -34.44637 -58.35927 9263 ft 229 kts 316°
2026-05-06 23:33 -34.43503 -58.37330 9816 ft 240 kts 315°
2026-05-06 23:33 -34.42297 -58.38823 10457 ft 249 kts 315°
2026-05-06 23:33 -34.41082 -58.40327 11081 ft 257 kts 315°
2026-05-06 23:34 -34.39821 -58.41889 11810 ft 261 kts 315°
2026-05-06 23:34 -34.38547 -58.43467 12564 ft 263 kts 314°
2026-05-06 23:34 -34.37264 -58.45054 13314 ft 265 kts 314°
2026-05-06 23:34 -34.35971 -58.46654 14066 ft 267 kts 314°
2026-05-06 23:35 -34.35093 -58.47739 14575 ft 267 kts 313°
2026-05-06 23:35 -34.32118 -58.51417 16075 ft 277 kts 313°
2026-05-06 23:35 -34.30761 -58.53094 16703 ft 281 kts 312°
2026-05-06 23:36 -34.29383 -58.54796 17332 ft 285 kts 312°
2026-05-06 23:36 -34.27986 -58.56520 17961 ft 288 kts 311°
2026-05-06 23:36 -34.26574 -58.58264 18589 ft 291 kts 312°
2026-05-06 23:36 -34.25147 -58.60025 19217 ft 294 kts 312°
2026-05-06 23:37 -34.23725 -58.61778 19836 ft 297 kts 312°
2026-05-06 23:37 -34.22278 -58.63570 20464 ft 298 kts 312°
2026-05-06 23:37 -34.20823 -58.65377 21093 ft 300 kts 312°
2026-05-06 23:37 -34.19365 -58.67191 21721 ft 300 kts 312°
2026-05-06 23:38 -34.17904 -58.69010 22348 ft 301 kts 312°
2026-05-06 23:38 -34.16464 -58.70797 22966 ft 301 kts 312°
2026-05-06 23:38 -34.15005 -58.72601 23591 ft 300 kts 312°
2026-05-06 23:38 -34.13544 -58.74403 24217 ft 299 kts 312°
2026-05-06 23:39 -34.12092 -58.76193 24842 ft 297 kts 312°
2026-05-06 23:39 -34.10646 -58.77971 25467 ft 295 kts 312°
2026-05-06 23:39 -34.09203 -58.79743 25940 ft 298 kts 312°
2026-05-06 23:39 -34.07739 -58.81539 26318 ft 303 kts 312°
2026-05-06 23:40 -34.06250 -58.83365 26695 ft 307 kts 312°
2026-05-06 23:40 -34.04740 -58.85216 27073 ft 312 kts 312°
2026-05-06 23:40 -34.03211 -58.87088 27449 ft 315 kts 312°
2026-05-06 23:40 -34.01663 -58.88983 27826 ft 319 kts 312°
2026-05-06 23:41 -34.00094 -58.90903 28212 ft 322 kts 311°
2026-05-06 23:41 -33.98520 -58.92812 28708 ft 322 kts 313°
2026-05-06 23:41 -33.96802 -58.94555 29209 ft 323 kts 319°
2026-05-06 23:41 -33.94938 -58.96069 29675 ft 325 kts 322°
2026-05-06 23:42 -33.92999 -58.97518 29927 ft 331 kts 323°
2026-05-06 23:42 -33.91045 -58.98951 30265 ft 333 kts 323°
2026-05-06 23:42 -33.89065 -59.00401 30693 ft 332 kts 323°
2026-05-06 23:42 -33.87098 -59.01840 31139 ft 331 kts 323°
2026-05-06 23:43 -33.85114 -59.03289 31469 ft 334 kts 322°
2026-05-06 23:43 -33.83125 -59.04740 31880 ft 332 kts 322°
2026-05-06 23:43 -33.81171 -59.06164 32376 ft 329 kts 322°
2026-05-06 23:43 -33.79196 -59.07602 32621 ft 333 kts 322°
2026-05-06 23:44 -33.77207 -59.09049 32909 ft 334 kts 322°
2026-05-06 23:44 -33.75216 -59.10496 33237 ft 335 kts 321°
2026-05-06 23:44 -33.73219 -59.11947 33530 ft 336 kts 321°
2026-05-06 23:44 -33.71208 -59.13407 33658 ft 341 kts 321°
2026-05-06 23:45 -33.69153 -59.14898 33664 ft 348 kts 321°
2026-05-06 23:45 -33.64974 -59.18007 33665 ft 362 kts 321°
2026-05-06 23:46 -33.60580 -59.21286 33666 ft 375 kts 321°
2026-05-06 23:46 -33.56099 -59.24624 33667 ft 387 kts 321°
2026-05-06 23:47 -33.51443 -59.28088 33670 ft 399 kts 322°
2026-05-06 23:47 -33.46672 -59.31632 33671 ft 408 kts 322°
2026-05-06 23:48 -33.41795 -59.35251 33672 ft 415 kts 322°
2026-05-06 23:48 -33.36879 -59.38911 33672 ft 416 kts 322°
2026-05-06 23:49 -33.31956 -59.42574 33672 ft 416 kts 322°
2026-05-06 23:49 -33.27064 -59.46205 33672 ft 416 kts 322°
2026-05-06 23:50 -33.22151 -59.49843 33672 ft 415 kts 322°
2026-05-06 23:50 -33.14770 -59.55299 33671 ft 416 kts 322°
2026-05-06 23:51 -33.09838 -59.58935 33670 ft 417 kts 321°
2026-05-06 23:51 -33.04896 -59.62570 33667 ft 418 kts 322°
2026-05-06 23:52 -32.99960 -59.66195 33668 ft 419 kts 322°
2026-05-06 23:52 -32.95003 -59.69836 33676 ft 418 kts 321°
2026-05-06 23:53 -32.90055 -59.73485 33676 ft 418 kts 321°
2026-05-06 23:53 -32.85090 -59.77118 33673 ft 419 kts 321°
2026-05-06 23:54 -32.80116 -59.80751 33673 ft 419 kts 321°
2026-05-06 23:54 -32.75178 -59.84357 33667 ft 419 kts 321°
2026-05-06 23:55 -32.70220 -59.87975 33672 ft 418 kts 321°
2026-05-06 23:55 -32.65258 -59.91596 33668 ft 418 kts 321°
2026-05-06 23:56 -32.60290 -59.95212 33666 ft 417 kts 321°
2026-05-06 23:56 -32.55333 -59.98821 33666 ft 418 kts 321°
2026-05-06 23:57 -32.50373 -60.02413 33665 ft 416 kts 321°
2026-05-06 23:57 -32.45459 -60.05972 33666 ft 416 kts 321°
2026-05-06 23:58 -32.40512 -60.09547 33666 ft 417 kts 321°
2026-05-06 23:58 -32.35544 -60.13133 33667 ft 418 kts 321°
2026-05-06 23:59 -32.30600 -60.16710 33663 ft 417 kts 321°
2026-05-06 23:59 -32.25647 -60.20301 33673 ft 417 kts 321°
2026-05-07 00:00 -32.20705 -60.23843 33666 ft 417 kts 321°
2026-05-07 00:00 -32.15760 -60.27408 33668 ft 417 kts 321°
2026-05-07 00:01 -32.10779 -60.30989 33671 ft 417 kts 321°
2026-05-07 00:01 -32.05838 -60.34529 33666 ft 415 kts 321°
2026-05-07 00:02 -32.00887 -60.38076 33670 ft 417 kts 321°
2026-05-07 00:02 -31.95921 -60.41623 33667 ft 417 kts 321°
2026-05-07 00:03 -31.90954 -60.45170 33665 ft 418 kts 321°
2026-05-07 00:03 -31.85978 -60.48726 33672 ft 418 kts 321°
2026-05-07 00:04 -31.81032 -60.52250 33666 ft 419 kts 321°
2026-05-07 00:04 -31.76037 -60.55797 33670 ft 418 kts 321°
2026-05-07 00:05 -31.71050 -60.59340 33662 ft 417 kts 321°
2026-05-07 00:05 -31.66098 -60.62862 33659 ft 416 kts 321°
2026-05-07 00:06 -31.61168 -60.66354 33650 ft 415 kts 321°
2026-05-07 00:06 -31.56232 -60.69858 33647 ft 415 kts 321°
2026-05-07 00:07 -31.51287 -60.73363 33648 ft 415 kts 321°
2026-05-07 00:07 -31.46341 -60.76852 33651 ft 415 kts 321°
2026-05-07 00:08 -31.41394 -60.80354 33653 ft 416 kts 321°
2026-05-07 00:08 -31.36428 -60.83841 33643 ft 416 kts 321°
2026-05-07 00:09 -31.31469 -60.87331 33642 ft 415 kts 321°
2026-05-07 00:09 -31.26554 -60.90800 33643 ft 415 kts 321°
2026-05-07 00:10 -31.21603 -60.94287 33645 ft 415 kts 321°
2026-05-07 00:10 -31.16641 -60.97760 33644 ft 415 kts 321°
2026-05-07 00:11 -31.11689 -61.01233 33648 ft 414 kts 322°
2026-05-07 00:11 -31.06762 -61.04680 33650 ft 413 kts 322°
2026-05-07 00:12 -31.01873 -61.08149 33649 ft 405 kts 320°
2026-05-07 00:12 -30.97182 -61.11657 33651 ft 399 kts 320°
2026-05-07 00:13 -30.92504 -61.15141 33655 ft 399 kts 320°
2026-05-07 00:13 -30.87842 -61.18616 33659 ft 401 kts 320°
2026-05-07 00:14 -30.83146 -61.22097 33658 ft 400 kts 320°
2026-05-07 00:14 -30.78445 -61.25585 33660 ft 400 kts 320°
2026-05-07 00:15 -30.73760 -61.29070 33658 ft 400 kts 320°
2026-05-07 00:15 -30.69060 -61.32565 33664 ft 401 kts 320°
2026-05-07 00:16 -30.64385 -61.36033 33662 ft 401 kts 320°
2026-05-07 00:16 -30.59664 -61.39529 33668 ft 402 kts 320°
2026-05-07 00:17 -30.54940 -61.43016 33668 ft 403 kts 320°
2026-05-07 00:17 -30.51017 -61.45909 33667 ft 402 kts 320°
2026-05-07 00:18 -30.45522 -61.49960 33670 ft 403 kts 320°
2026-05-07 00:18 -30.41568 -61.52889 33672 ft 403 kts 320°
2026-05-07 00:19 -30.36066 -61.56921 33672 ft 402 kts 320°
2026-05-07 00:19 -30.32110 -61.59819 33676 ft 401 kts 320°
2026-05-07 00:20 -30.27424 -61.63268 33678 ft 402 kts 320°
2026-05-07 00:20 -30.22695 -61.66735 33678 ft 402 kts 320°
2026-05-07 00:21 -30.17957 -61.70204 33679 ft 402 kts 320°
2026-05-07 00:21 -30.13256 -61.73637 33678 ft 403 kts 320°
2026-05-07 00:22 -30.08514 -61.77113 33682 ft 403 kts 320°
2026-05-07 00:22 -30.03762 -61.80581 33681 ft 403 kts 320°
2026-05-07 00:23 -29.99008 -61.84044 33684 ft 402 kts 320°
2026-05-07 00:23 -29.94325 -61.87448 33684 ft 400 kts 320°
2026-05-07 00:24 -29.89617 -61.90867 33684 ft 400 kts 320°
2026-05-07 00:24 -29.84844 -61.94196 33685 ft 403 kts 323°
2026-05-07 00:25 -29.79865 -61.97236 33685 ft 404 kts 324°
2026-05-07 00:25 -29.74880 -62.00258 33685 ft 404 kts 324°
2026-05-07 00:26 -29.69937 -62.03271 33686 ft 404 kts 324°
2026-05-07 00:26 -29.64972 -62.06304 33684 ft 404 kts 324°
2026-05-07 00:27 -29.60002 -62.09345 33687 ft 404 kts 324°
2026-05-07 00:27 -29.55030 -62.12395 33687 ft 405 kts 324°
2026-05-07 00:28 -29.50085 -62.15433 33687 ft 406 kts 323°
2026-05-07 00:28 -29.45096 -62.18492 33687 ft 406 kts 323°
2026-05-07 00:29 -29.40104 -62.21548 33687 ft 406 kts 324°
2026-05-07 00:30 -29.30125 -62.27645 33687 ft 406 kts 324°
2026-05-07 00:30 -29.25126 -62.30695 33687 ft 407 kts 324°
2026-05-07 00:31 -29.20147 -62.33727 33697 ft 408 kts 323°
2026-05-07 00:31 -29.15127 -62.36782 33702 ft 408 kts 323°
2026-05-07 00:32 -29.10118 -62.39833 33701 ft 408 kts 323°
2026-05-07 00:32 -29.05104 -62.42883 33700 ft 408 kts 323°
2026-05-07 00:33 -29.00084 -62.45927 33700 ft 409 kts 324°
2026-05-07 00:33 -28.95047 -62.48976 33698 ft 410 kts 323°
2026-05-07 00:34 -28.89999 -62.52027 33698 ft 410 kts 323°
2026-05-07 00:34 -28.84982 -62.55057 33697 ft 410 kts 323°
2026-05-07 00:35 -28.80223 -62.58540 33696 ft 403 kts 317°
2026-05-07 00:35 -28.75704 -62.62307 33695 ft 403 kts 316°
2026-05-07 00:36 -28.71178 -62.66072 33694 ft 403 kts 317°
2026-05-07 00:36 -28.66641 -62.69836 33693 ft 403 kts 317°
2026-05-07 00:37 -28.62120 -62.73577 33690 ft 404 kts 316°
2026-05-07 00:37 -28.57571 -62.77336 33681 ft 404 kts 317°
2026-05-07 00:38 -28.53029 -62.81096 33679 ft 404 kts 316°
2026-05-07 00:38 -28.48483 -62.84860 33678 ft 404 kts 316°
2026-05-07 00:39 -28.43934 -62.88618 33678 ft 404 kts 316°
2026-05-07 00:39 -28.39385 -62.92369 33677 ft 404 kts 317°
2026-05-07 00:40 -28.34833 -62.96117 33676 ft 404 kts 317°
2026-05-07 00:40 -28.30299 -62.99844 33675 ft 404 kts 317°
2026-05-07 00:41 -28.25743 -63.03586 33674 ft 404 kts 316°
2026-05-07 00:41 -28.21209 -63.07304 33674 ft 404 kts 316°
2026-05-07 00:42 -28.16654 -63.11038 33675 ft 404 kts 316°
2026-05-07 00:42 -28.12096 -63.14767 33672 ft 404 kts 316°
2026-05-07 00:43 -28.07530 -63.18500 33673 ft 404 kts 316°
2026-05-07 00:43 -28.02975 -63.22221 33673 ft 403 kts 316°
2026-05-07 00:44 -27.98419 -63.25936 33672 ft 404 kts 316°
2026-05-07 00:44 -27.93828 -63.29676 33671 ft 408 kts 316°
2026-05-07 00:45 -27.89230 -63.33418 33671 ft 406 kts 316°
2026-05-07 00:45 -27.84636 -63.37154 33671 ft 406 kts 316°
2026-05-07 00:46 -27.80046 -63.40882 33670 ft 406 kts 316°
2026-05-07 00:46 -27.75476 -63.44590 33673 ft 406 kts 316°
2026-05-07 00:47 -27.70879 -63.48315 33681 ft 406 kts 316°
2026-05-07 00:47 -27.66286 -63.52035 33681 ft 406 kts 316°
2026-05-07 00:48 -27.61682 -63.55759 33680 ft 406 kts 316°
2026-05-07 00:48 -27.57083 -63.59474 33680 ft 406 kts 316°
2026-05-07 00:49 -27.52512 -63.63163 33680 ft 407 kts 316°
2026-05-07 00:49 -27.47907 -63.66877 33681 ft 407 kts 317°
2026-05-07 00:50 -27.43286 -63.70598 33681 ft 408 kts 317°
2026-05-07 00:50 -27.38677 -63.74307 33682 ft 407 kts 317°
2026-05-07 00:51 -27.34058 -63.78020 33683 ft 408 kts 317°
2026-05-07 00:51 -27.29461 -63.81711 33683 ft 408 kts 317°
2026-05-07 00:52 -27.24825 -63.85429 33685 ft 409 kts 317°
2026-05-07 00:52 -27.20191 -63.89155 33686 ft 410 kts 317°
2026-05-07 00:53 -27.15537 -63.92884 33688 ft 410 kts 317°
2026-05-07 00:53 -27.10878 -63.96607 33690 ft 411 kts 317°
2026-05-07 00:54 -27.06205 -64.00336 33692 ft 412 kts 317°
2026-05-07 00:54 -27.01532 -64.04061 33695 ft 411 kts 317°
2026-05-07 00:55 -26.96858 -64.07785 33697 ft 412 kts 317°
2026-05-07 00:55 -26.92228 -64.11526 33700 ft 413 kts 317°
2026-05-07 00:56 -26.87568 -64.15292 33703 ft 413 kts 317°
2026-05-07 00:56 -26.82887 -64.19069 33715 ft 414 kts 317°
2026-05-07 00:57 -26.78195 -64.22853 33737 ft 416 kts 317°
2026-05-07 00:57 -26.73492 -64.26640 33746 ft 416 kts 317°
2026-05-07 00:58 -26.68814 -64.30405 33738 ft 416 kts 317°
2026-05-07 00:58 -26.64117 -64.34199 33728 ft 417 kts 317°
2026-05-07 00:59 -26.57056 -64.39887 33730 ft 417 kts 318°
2026-05-07 01:00 -26.52334 -64.43682 33732 ft 418 kts 318°
2026-05-07 01:00 -26.47611 -64.47474 33734 ft 418 kts 318°
2026-05-07 01:01 -26.42918 -64.51236 33736 ft 418 kts 318°
2026-05-07 01:01 -26.38953 -64.54411 33737 ft 419 kts 318°
2026-05-07 01:02 -26.33452 -64.58813 33740 ft 419 kts 318°
2026-05-07 01:02 -26.28704 -64.62607 33741 ft 419 kts 318°
2026-05-07 01:03 -26.23955 -64.66398 33745 ft 418 kts 318°
2026-05-07 01:03 -26.20122 -64.69456 33718 ft 399 kts 318°
2026-05-07 01:03 -26.17888 -64.71237 33315 ft 391 kts 318°
2026-05-07 01:04 -26.15676 -64.72999 32615 ft 390 kts 318°
2026-05-07 01:04 -26.13463 -64.74761 31879 ft 391 kts 318°
2026-05-07 01:04 -26.11249 -64.76523 31132 ft 391 kts 319°
2026-05-07 01:04 -26.09032 -64.78286 30377 ft 392 kts 319°
2026-05-07 01:05 -26.06813 -64.80050 29611 ft 392 kts 319°
2026-05-07 01:05 -26.04587 -64.81819 28847 ft 393 kts 319°
2026-05-07 01:05 -26.02381 -64.83572 28072 ft 395 kts 320°
2026-05-07 01:05 -26.00138 -64.85353 27268 ft 397 kts 320°
2026-05-07 01:06 -25.97884 -64.87142 26439 ft 399 kts 320°
2026-05-07 01:06 -25.95598 -64.88958 25577 ft 410 kts 320°
2026-05-07 01:06 -25.93239 -64.90836 24659 ft 423 kts 321°
2026-05-07 01:06 -25.90812 -64.92762 23730 ft 432 kts 321°
2026-05-07 01:07 -25.88354 -64.94709 22952 ft 436 kts 321°
2026-05-07 01:07 -25.85900 -64.96652 22195 ft 430 kts 321°
2026-05-07 01:07 -25.83469 -64.98574 21447 ft 426 kts 321°
2026-05-07 01:07 -25.81063 -65.00476 20705 ft 423 kts 321°
2026-05-07 01:08 -25.78680 -65.02358 19972 ft 419 kts 322°
2026-05-07 01:08 -25.76339 -65.04208 19248 ft 416 kts 322°
2026-05-07 01:08 -25.73987 -65.06061 18522 ft 412 kts 322°
2026-05-07 01:08 -25.71659 -65.07897 17805 ft 409 kts 322°
2026-05-07 01:09 -25.69334 -65.09701 17098 ft 407 kts 324°
2026-05-07 01:09 -25.66939 -65.11369 16395 ft 405 kts 326°
2026-05-07 01:09 -25.64511 -65.12940 15690 ft 403 kts 328°
2026-05-07 01:09 -25.62086 -65.14478 14994 ft 400 kts 328°
2026-05-07 01:10 -25.59690 -65.16013 14307 ft 397 kts 327°
2026-05-07 01:10 -25.57303 -65.17549 13631 ft 394 kts 328°
2026-05-07 01:10 -25.54938 -65.19071 13069 ft 390 kts 328°
2026-05-07 01:10 -25.52643 -65.20557 12909 ft 375 kts 328°
2026-05-07 01:11 -25.50433 -65.21991 12718 ft 362 kts 327°
2026-05-07 01:11 -25.48293 -65.23381 12533 ft 351 kts 328°
2026-05-07 01:11 -25.46221 -65.24732 12347 ft 340 kts 328°
2026-05-07 01:11 -25.44233 -65.26025 12170 ft 331 kts 327°
2026-05-07 01:12 -25.42273 -65.27299 11989 ft 322 kts 327°
2026-05-07 01:12 -25.40370 -65.28537 11825 ft 313 kts 327°
2026-05-07 01:12 -25.38513 -65.29744 11663 ft 306 kts 328°
2026-05-07 01:12 -25.36700 -65.30922 11498 ft 298 kts 328°
2026-05-07 01:13 -25.34934 -65.32071 11339 ft 291 kts 328°
2026-05-07 01:13 -25.33192 -65.33201 11181 ft 289 kts 328°
2026-05-07 01:13 -25.31448 -65.34334 11027 ft 291 kts 328°
2026-05-07 01:13 -25.29650 -65.35503 10826 ft 312 kts 328°
2026-05-07 01:14 -25.27693 -65.36773 10544 ft 337 kts 328°
2026-05-07 01:14 -25.25629 -65.38111 10231 ft 348 kts 329°
2026-05-07 01:14 -25.23542 -65.39463 9914 ft 355 kts 329°
2026-05-07 01:14 -25.21416 -65.40840 9590 ft 353 kts 329°
2026-05-07 01:15 -25.19304 -65.42207 9270 ft 351 kts 329°
2026-05-07 01:15 -25.17203 -65.43567 8951 ft 348 kts 329°
2026-05-07 01:15 -25.15163 -65.44938 8636 ft 344 kts 328°
2026-05-07 01:15 -25.13137 -65.46257 8221 ft 334 kts 330°
2026-05-07 01:16 -25.11116 -65.47553 7379 ft 336 kts 329°
2026-05-07 01:16 -25.09139 -65.48829 7148 ft 319 kts 329°
2026-05-07 01:16 -25.07278 -65.50038 7011 ft 301 kts 329°
2026-05-07 01:16 -25.05529 -65.51173 6911 ft 283 kts 329°
2026-05-07 01:17 -25.03795 -65.52030 6812 ft 265 kts 345°
2026-05-07 01:17 -25.02024 -65.52107 6744 ft 248 kts
2026-05-07 01:17 -25.00371 -65.51865 6619 ft 232 kts
2026-05-07 01:17 -24.98826 -65.51527 6384 ft 220 kts 10°
2026-05-07 01:18 -24.97380 -65.51205 6114 ft 203 kts
2026-05-07 01:18 -24.96044 -65.50910 5821 ft 188 kts
2026-05-07 01:18 -24.94809 -65.50638 5569 ft 174 kts
2026-05-07 01:18 -24.93657 -65.50386 5337 ft 165 kts 10°
2026-05-07 01:19 -24.92565 -65.50146 5135 ft 159 kts 10°
2026-05-07 01:19 -24.91477 -65.49900 4950 ft 161 kts 10°
2026-05-07 01:19 -24.90370 -65.49680 4682 ft 163 kts
2026-05-07 01:19 -24.89278 -65.49443 4501 ft 158 kts 12°
2026-05-07 01:20 -24.88207 -65.49181 4279 ft 155 kts 11°
2026-05-07 01:20 -24.87163 -65.48962 4103 ft 150 kts 11°
2026-05-07 01:20 -24.86208 -65.48756 4085 ft 115 kts 11°
2026-05-07 01:20 -24.85670 -65.48636 4085 ft 61 kts 11°
2026-05-07 01:21 -24.85264 -65.48548 4085 ft 54 kts 11°
2026-05-07 01:21 -24.84928 -65.48476 4085 ft 44 kts 11°
2026-05-07 01:21 -24.84689 -65.48406 4085 ft 28 kts 41°
2026-05-07 01:21 -24.84593 -65.48259 4085 ft 20 kts 72°
2026-05-07 01:22 -24.84552 -65.48137 4085 ft 14 kts 69°
2026-05-07 01:22 -24.84522 -65.48049 4085 ft 12 kts 69°
2026-05-07 01:22 -24.84512 -65.47963 4085 ft 9 kts 109°
2026-05-07 01:22 -24.84490 -65.47924 4085 ft 6 kts 21°
2026-05-07 01:23 -24.84465 -65.47914 4085 ft 1 kts 20°
2026-05-07 01:23 -24.84463 -65.47913 4085 ft 0 kts 20°